Weather History for Haleyville, AL

Change the Weather History Date:

Friday, May 24, 2013

  Actual Average (KJFX) Record (KJFX)
Temperature  
Mean Temperature 62 °F -  
Max Temperature 73 °F 81 °F 93 °F (2011)
Min Temperature 50 °F 56 °F 42 °F (1961)
Degree Days  
Heating Degree Days 4    
Growing Degree Days 12 (Base 50)    
Moisture  
Dew Point 51 °F    
Average Humidity 72    
Maximum Humidity 97    
Minimum Humidity 38    
Precipitation  
Precipitation 0.00 in - - ()
Sea Level Pressure  
Sea Level Pressure 30.27 in    
Wind  
Wind Speed 6 mph (North)    
Max Wind Speed 10 mph    
Max Gust Speed 16 mph    
Visibility 10 miles    
Events      
Averages and records for this station are not official NWS values.
T = Trace of Precipitation, MM = Missing Value Source: NWS Daily Summary

Daily Weather History Graph

Daily Weather History Graph

Search for Another Location

Airport:

Trip Planner

Search our weather history database for the weather conditions in past years. The results will help you decide how hot, cold, wet, or windy it might be!

Date:

Astronomy

May. 24, 2013 Rise Set
Actual Time 5:42 AM CDT 7:52 PM CDT
Civil Twilight 5:14 AM CDT 8:20 PM CDT
Nautical Twilight 4:39 AM CDT 8:55 PM CDT
Astronomical Twilight 4:02 AM CDT 9:32 PM CDT
Moon 7:35 PM CDT (5/24) 5:12 AM CDT (5/24)
Length of Visible Light 15h 06m
Length of Day
14h 09m
Full, 100% of the Moon is Illuminated
May 24
Full
May 24
Full
May 31
Last Quarter
Jun 8
New
Jun 16
First Quarter

Hourly Weather History & Observations

Time (CDT) Temp. Dew Point Humidity Pressure Visibility Wind Dir Wind Speed Gust Speed Precip Events Conditions
12:56 AM 61.0 °F 56.8 °F 86% 30.17 in 10.0 mi North 4.6 mph - N/A   Clear
1:56 AM 59.9 °F 54.9 °F 83% 30.18 in 10.0 mi North 5.8 mph - N/A   Clear
2:56 AM 57.9 °F 54.0 °F 87% 30.18 in 10.0 mi North 5.8 mph - N/A   Clear
3:56 AM 56.8 °F 54.0 °F 90% 30.19 in 10.0 mi North 5.8 mph - N/A   Clear
4:56 AM 55.9 °F 52.9 °F 89% 30.20 in 10.0 mi North 6.9 mph - N/A   Clear
5:56 AM 54.9 °F 54.0 °F 97% 30.22 in 10.0 mi North 5.8 mph - N/A   Clear
6:22 AM 57.2 °F 55.4 °F 94% 30.20 in 10.0 mi NNE 6.9 mph - N/A   Mostly Cloudy
6:56 AM 57.9 °F 54.9 °F 90% 30.25 in 10.0 mi North 8.1 mph - N/A   Overcast
7:56 AM 59.0 °F 54.0 °F 83% 30.28 in 10.0 mi North 10.4 mph 16.1 mph N/A   Overcast
8:56 AM 57.9 °F 54.0 °F 87% 30.31 in 10.0 mi North 10.4 mph - N/A   Overcast
9:56 AM 59.0 °F 50.9 °F 74% 30.32 in 10.0 mi North 10.4 mph - N/A   Mostly Cloudy
10:10 AM 60.8 °F 51.8 °F 72% 30.29 in 10.0 mi North 10.4 mph - N/A   Scattered Clouds
10:56 AM 63.9 °F 52.0 °F 65% 30.32 in 10.0 mi North 9.2 mph - N/A   Clear
11:56 AM 66.9 °F 50.9 °F 56% 30.33 in 10.0 mi NE 8.1 mph - N/A   Clear
12:56 PM 68.9 °F 50.0 °F 51% 30.32 in 10.0 mi Variable 6.9 mph - N/A   Clear
1:56 PM 70.9 °F 50.0 °F 48% 30.32 in 10.0 mi North 8.1 mph - N/A   Clear
2:56 PM 73.9 °F 48.9 °F 41% 30.31 in 10.0 mi NE 8.1 mph - N/A   Clear
3:56 PM 73.9 °F 47.8 °F 40% 30.31 in 10.0 mi NNE 6.9 mph - N/A   Clear
4:56 PM 72.9 °F 45.9 °F 38% 30.30 in 10.0 mi Variable 5.8 mph - N/A   Clear
5:56 PM 72.9 °F 46.9 °F 40% 30.29 in 10.0 mi NNE 5.8 mph - N/A   Clear
6:56 PM 68.9 °F 47.8 °F 47% 30.28 in 10.0 mi NNE 5.8 mph - N/A   Clear
7:56 PM 63.0 °F 48.9 °F 60% 30.28 in 10.0 mi NNE 4.6 mph - N/A   Clear
8:56 PM 55.9 °F 50.0 °F 80% 30.30 in 10.0 mi Calm Calm - N/A   Clear
9:56 PM 52.9 °F 48.9 °F 86% 30.32 in 10.0 mi Calm Calm - N/A   Clear
10:56 PM 50.9 °F 48.9 °F 93% 30.32 in 10.0 mi Calm Calm - N/A   Clear
11:56 PM 50.0 °F 45.9 °F 86% 30.31 in 10.0 mi North 3.5 mph - N/A   Clear